Information on these data can be found in provided Readme document
Contact Info: Zachary Fasnacht (zachary.fasnacht@ssaihq.com); Nickolay Krotkov (nickolay.a.krotkov@nasa.gov); Lok Lamsal (lok.lamsal@nasa.gov)

FillValue: -999.
ScaleFactor: 1e15
Units: molecules/cm^2

Date(yyyy-mm-dd),City,Country,LonCenter,LatCenter,BoundingCoordinates,Median,Q1,Q3,Mean,Baseline_Median,Baseline_Q1,Baseline_Q3,Baseline_Mean,NumGoodSamples,NumTotalSamples
2015-01-01,Perth,Australia,115.8667,-31.9501,[115.3667 -32.4501 116.3667 -31.4501],0.654,0.266,1.084,0.677,0.786,0.411,1.149,0.772,307.0,551.0
2015-01-02,Perth,Australia,115.8667,-31.9501,[115.3667 -32.4501 116.3667 -31.4501],0.688,0.273,1.112,0.721,0.812,0.424,1.174,0.796,279.0,556.0
2015-01-03,Perth,Australia,115.8667,-31.9501,[115.3667 -32.4501 116.3667 -31.4501],0.76,0.32,1.226,0.829,0.814,0.429,1.211,0.814,281.0,553.0
2015-01-04,Perth,Australia,115.8667,-31.9501,[115.3667 -32.4501 116.3667 -31.4501],0.762,0.317,1.227,0.83,0.808,0.409,1.199,0.805,301.0,567.0
2015-01-05,Perth,Australia,115.8667,-31.9501,[115.3667 -32.4501 116.3667 -31.4501],0.762,0.316,1.221,0.831,0.78,0.346,1.183,0.777,289.0,560.0
2015-01-06,Perth,Australia,115.8667,-31.9501,[115.3667 -32.4501 116.3667 -31.4501],0.776,0.317,1.238,0.84,0.767,0.328,1.18,0.767,298.0,561.0
2015-01-07,Perth,Australia,115.8667,-31.9501,[115.3667 -32.4501 116.3667 -31.4501],0.751,0.321,1.191,0.829,0.767,0.34,1.192,0.784,298.0,571.0
2015-01-08,Perth,Australia,115.8667,-31.9501,[115.3667 -32.4501 116.3667 -31.4501],0.753,0.341,1.221,0.831,0.775,0.348,1.205,0.79,316.0,552.0
2015-01-09,Perth,Australia,115.8667,-31.9501,[115.3667 -32.4501 116.3667 -31.4501],0.833,0.432,1.31,0.896,0.796,0.36,1.203,0.798,292.0,561.0
2015-01-10,Perth,Australia,115.8667,-31.9501,[115.3667 -32.4501 116.3667 -31.4501],0.833,0.432,1.31,0.896,0.781,0.34,1.196,0.781,292.0,513.0
2015-01-11,Perth,Australia,115.8667,-31.9501,[115.3667 -32.4501 116.3667 -31.4501],0.845,0.464,1.331,0.949,0.801,0.345,1.22,0.795,261.0,523.0
2015-01-12,Perth,Australia,115.8667,-31.9501,[115.3667 -32.4501 116.3667 -31.4501],0.795,0.388,1.306,0.876,0.787,0.348,1.195,0.785,259.0,521.0
2015-01-13,Perth,Australia,115.8667,-31.9501,[115.3667 -32.4501 116.3667 -31.4501],0.826,0.432,1.315,0.897,0.808,0.375,1.221,0.811,270.0,528.0
2015-01-14,Perth,Australia,115.8667,-31.9501,[115.3667 -32.4501 116.3667 -31.4501],0.8,0.432,1.31,0.891,0.773,0.353,1.205,0.787,270.0,528.0
2015-01-15,Perth,Australia,115.8667,-31.9501,[115.3667 -32.4501 116.3667 -31.4501],0.795,0.408,1.315,0.89,0.778,0.359,1.214,0.792,267.0,519.0
2015-01-16,Perth,Australia,115.8667,-31.9501,[115.3667 -32.4501 116.3667 -31.4501],0.791,0.366,1.403,0.922,0.752,0.33,1.2,0.769,247.0,526.0
2015-01-17,Perth,Australia,115.8667,-31.9501,[115.3667 -32.4501 116.3667 -31.4501],0.768,0.329,1.306,0.867,0.75,0.324,1.179,0.763,277.0,513.0
2015-01-18,Perth,Australia,115.8667,-31.9501,[115.3667 -32.4501 116.3667 -31.4501],0.739,0.246,1.151,0.753,0.775,0.325,1.176,0.763,241.0,517.0
2015-01-19,Perth,Australia,115.8667,-31.9501,[115.3667 -32.4501 116.3667 -31.4501],0.738,0.283,1.139,0.761,0.772,0.332,1.177,0.767,240.0,515.0
2015-01-20,Perth,Australia,115.8667,-31.9501,[115.3667 -32.4501 116.3667 -31.4501],0.743,0.314,1.176,0.796,0.781,0.368,1.217,0.79,259.0,529.0
2015-01-21,Perth,Australia,115.8667,-31.9501,[115.3667 -32.4501 116.3667 -31.4501],0.738,0.284,1.161,0.766,0.784,0.371,1.224,0.784,242.0,521.0
2015-01-22,Perth,Australia,115.8667,-31.9501,[115.3667 -32.4501 116.3667 -31.4501],0.74,0.314,1.176,0.783,0.771,0.353,1.179,0.764,246.0,522.0
2015-01-23,Perth,Australia,115.8667,-31.9501,[115.3667 -32.4501 116.3667 -31.4501],0.739,0.283,1.162,0.775,0.776,0.352,1.194,0.767,229.0,531.0
2015-01-24,Perth,Australia,115.8667,-31.9501,[115.3667 -32.4501 116.3667 -31.4501],0.739,0.283,1.162,0.775,0.789,0.356,1.203,0.788,229.0,512.0
2015-01-25,Perth,Australia,115.8667,-31.9501,[115.3667 -32.4501 116.3667 -31.4501],0.739,0.283,1.162,0.775,0.808,0.371,1.23,0.811,229.0,555.0
2015-01-26,Perth,Australia,115.8667,-31.9501,[115.3667 -32.4501 116.3667 -31.4501],0.739,0.283,1.162,0.775,0.808,0.385,1.233,0.821,229.0,544.0
2015-01-27,Perth,Australia,115.8667,-31.9501,[115.3667 -32.4501 116.3667 -31.4501],0.785,0.41,1.23,0.844,0.796,0.396,1.258,0.828,198.0,553.0
2015-01-28,Perth,Australia,115.8667,-31.9501,[115.3667 -32.4501 116.3667 -31.4501],0.768,0.429,1.16,0.818,0.802,0.4,1.208,0.817,198.0,553.0
2015-01-29,Perth,Australia,115.8667,-31.9501,[115.3667 -32.4501 116.3667 -31.4501],0.768,0.429,1.14,0.788,0.783,0.381,1.198,0.8,207.0,563.0
2015-01-30,Perth,Australia,115.8667,-31.9501,[115.3667 -32.4501 116.3667 -31.4501],0.82,0.471,1.16,0.823,0.774,0.371,1.181,0.794,225.0,563.0
2015-01-31,Perth,Australia,115.8667,-31.9501,[115.3667 -32.4501 116.3667 -31.4501],0.86,0.471,1.176,0.837,0.826,0.412,1.22,0.831,239.0,551.0
2015-02-01,Perth,Australia,115.8667,-31.9501,[115.3667 -32.4501 116.3667 -31.4501],0.889,0.475,1.23,0.883,0.8,0.399,1.224,0.824,218.0,558.0
2015-02-02,Perth,Australia,115.8667,-31.9501,[115.3667 -32.4501 116.3667 -31.4501],0.82,0.471,1.168,0.851,0.78,0.394,1.206,0.802,247.0,545.0
2015-02-03,Perth,Australia,115.8667,-31.9501,[115.3667 -32.4501 116.3667 -31.4501],0.82,0.476,1.206,0.868,0.786,0.386,1.216,0.814,214.0,551.0
2015-02-04,Perth,Australia,115.8667,-31.9501,[115.3667 -32.4501 116.3667 -31.4501],0.82,0.48,1.168,0.846,0.796,0.36,1.204,0.798,212.0,550.0
2015-02-05,Perth,Australia,115.8667,-31.9501,[115.3667 -32.4501 116.3667 -31.4501],0.82,0.48,1.168,0.848,0.82,0.386,1.208,0.816,206.0,564.0
2015-02-06,Perth,Australia,115.8667,-31.9501,[115.3667 -32.4501 116.3667 -31.4501],0.815,0.476,1.16,0.84,0.815,0.378,1.204,0.822,185.0,556.0
2015-02-07,Perth,Australia,115.8667,-31.9501,[115.3667 -32.4501 116.3667 -31.4501],0.815,0.475,1.16,0.832,0.809,0.396,1.201,0.819,212.0,559.0
2015-02-08,Perth,Australia,115.8667,-31.9501,[115.3667 -32.4501 116.3667 -31.4501],0.815,0.471,1.164,0.832,0.794,0.387,1.201,0.81,230.0,569.0
2015-02-09,Perth,Australia,115.8667,-31.9501,[115.3667 -32.4501 116.3667 -31.4501],0.815,0.471,1.164,0.832,0.791,0.397,1.185,0.808,240.0,552.0
2015-02-10,Perth,Australia,115.8667,-31.9501,[115.3667 -32.4501 116.3667 -31.4501],0.815,0.471,1.164,0.832,0.78,0.395,1.18,0.796,240.0,562.0
2015-02-11,Perth,Australia,115.8667,-31.9501,[115.3667 -32.4501 116.3667 -31.4501],0.815,0.471,1.164,0.832,0.792,0.412,1.196,0.81,240.0,515.0
2015-02-12,Perth,Australia,115.8667,-31.9501,[115.3667 -32.4501 116.3667 -31.4501],0.815,0.357,1.196,0.819,0.783,0.364,1.185,0.791,209.0,523.0
2015-02-13,Perth,Australia,115.8667,-31.9501,[115.3667 -32.4501 116.3667 -31.4501],0.741,0.319,1.164,0.752,0.764,0.344,1.181,0.773,201.0,521.0
2015-02-14,Perth,Australia,115.8667,-31.9501,[115.3667 -32.4501 116.3667 -31.4501],0.686,0.271,1.114,0.707,0.751,0.327,1.162,0.756,210.0,531.0
2015-02-15,Perth,Australia,115.8667,-31.9501,[115.3667 -32.4501 116.3667 -31.4501],0.682,0.271,1.054,0.685,0.713,0.312,1.105,0.721,209.0,534.0
2015-02-16,Perth,Australia,115.8667,-31.9501,[115.3667 -32.4501 116.3667 -31.4501],0.686,0.294,1.106,0.706,0.711,0.305,1.106,0.723,226.0,525.0
2015-02-17,Perth,Australia,115.8667,-31.9501,[115.3667 -32.4501 116.3667 -31.4501],0.689,0.201,1.138,0.711,0.711,0.305,1.11,0.727,204.0,532.0
2015-02-18,Perth,Australia,115.8667,-31.9501,[115.3667 -32.4501 116.3667 -31.4501],0.656,0.271,1.138,0.723,0.71,0.319,1.107,0.729,231.0,518.0
2015-02-19,Perth,Australia,115.8667,-31.9501,[115.3667 -32.4501 116.3667 -31.4501],0.598,0.22,1.121,0.689,0.719,0.324,1.125,0.741,199.0,523.0
2015-02-20,Perth,Australia,115.8667,-31.9501,[115.3667 -32.4501 116.3667 -31.4501],0.632,0.252,1.115,0.693,0.686,0.289,1.115,0.727,228.0,524.0
2015-02-21,Perth,Australia,115.8667,-31.9501,[115.3667 -32.4501 116.3667 -31.4501],0.632,0.24,1.117,0.693,0.682,0.289,1.122,0.721,262.0,537.0
2015-02-22,Perth,Australia,115.8667,-31.9501,[115.3667 -32.4501 116.3667 -31.4501],0.632,0.237,1.115,0.688,0.676,0.281,1.127,0.719,244.0,529.0
2015-02-23,Perth,Australia,115.8667,-31.9501,[115.3667 -32.4501 116.3667 -31.4501],0.603,0.269,1.069,0.662,0.678,0.287,1.131,0.722,247.0,531.0
2015-02-24,Perth,Australia,115.8667,-31.9501,[115.3667 -32.4501 116.3667 -31.4501],0.619,0.269,1.115,0.701,0.668,0.286,1.135,0.737,248.0,538.0
2015-02-25,Perth,Australia,115.8667,-31.9501,[115.3667 -32.4501 116.3667 -31.4501],0.656,0.286,1.177,0.728,0.692,0.286,1.23,0.771,267.0,515.0
2015-02-26,Perth,Australia,115.8667,-31.9501,[115.3667 -32.4501 116.3667 -31.4501],0.656,0.286,1.177,0.728,0.722,0.317,1.243,0.791,267.0,559.0
2015-02-27,Perth,Australia,115.8667,-31.9501,[115.3667 -32.4501 116.3667 -31.4501],0.754,0.368,1.234,0.791,0.744,0.35,1.258,0.817,292.0,549.0
2015-02-28,Perth,Australia,115.8667,-31.9501,[115.3667 -32.4501 116.3667 -31.4501],0.799,0.415,1.29,0.859,0.781,0.385,1.294,0.855,269.0,558.0
2015-03-01,Perth,Australia,115.8667,-31.9501,[115.3667 -32.4501 116.3667 -31.4501],0.815,0.442,1.303,0.892,0.806,0.397,1.305,0.882,268.0,555.0
2015-03-02,Perth,Australia,115.8667,-31.9501,[115.3667 -32.4501 116.3667 -31.4501],0.842,0.452,1.366,0.931,0.809,0.395,1.345,0.89,276.0,562.0
2015-03-03,Perth,Australia,115.8667,-31.9501,[115.3667 -32.4501 116.3667 -31.4501],0.826,0.425,1.366,0.916,0.826,0.409,1.364,0.901,272.0,563.0
2015-03-04,Perth,Australia,115.8667,-31.9501,[115.3667 -32.4501 116.3667 -31.4501],0.85,0.436,1.39,0.938,0.848,0.403,1.38,0.907,289.0,554.0
2015-03-05,Perth,Australia,115.8667,-31.9501,[115.3667 -32.4501 116.3667 -31.4501],0.867,0.444,1.398,0.977,0.864,0.387,1.398,0.916,272.0,562.0
2015-03-06,Perth,Australia,115.8667,-31.9501,[115.3667 -32.4501 116.3667 -31.4501],0.867,0.444,1.398,0.977,0.86,0.381,1.405,0.914,272.0,547.0
2015-03-07,Perth,Australia,115.8667,-31.9501,[115.3667 -32.4501 116.3667 -31.4501],0.975,0.519,1.451,1.04,0.881,0.4,1.428,0.932,239.0,550.0
2015-03-08,Perth,Australia,115.8667,-31.9501,[115.3667 -32.4501 116.3667 -31.4501],0.909,0.585,1.392,1.032,0.892,0.429,1.465,0.95,238.0,553.0
2015-03-09,Perth,Australia,115.8667,-31.9501,[115.3667 -32.4501 116.3667 -31.4501],0.877,0.583,1.392,1.031,0.883,0.413,1.458,0.941,262.0,567.0
2015-03-10,Perth,Australia,115.8667,-31.9501,[115.3667 -32.4501 116.3667 -31.4501],0.946,0.616,1.392,1.055,0.92,0.425,1.47,0.955,254.0,560.0
2015-03-11,Perth,Australia,115.8667,-31.9501,[115.3667 -32.4501 116.3667 -31.4501],0.87,0.581,1.366,0.987,0.918,0.418,1.428,0.945,264.0,564.0
2015-03-12,Perth,Australia,115.8667,-31.9501,[115.3667 -32.4501 116.3667 -31.4501],0.87,0.583,1.366,0.986,0.913,0.401,1.407,0.932,248.0,573.0
2015-03-13,Perth,Australia,115.8667,-31.9501,[115.3667 -32.4501 116.3667 -31.4501],0.906,0.583,1.366,0.995,0.929,0.409,1.412,0.947,267.0,554.0
2015-03-14,Perth,Australia,115.8667,-31.9501,[115.3667 -32.4501 116.3667 -31.4501],0.87,0.519,1.362,0.974,0.952,0.419,1.445,0.962,242.0,563.0
2015-03-15,Perth,Australia,115.8667,-31.9501,[115.3667 -32.4501 116.3667 -31.4501],0.87,0.519,1.362,0.974,0.95,0.425,1.42,0.955,242.0,516.0
2015-03-16,Perth,Australia,115.8667,-31.9501,[115.3667 -32.4501 116.3667 -31.4501],0.87,0.522,1.319,0.968,0.959,0.424,1.44,0.945,211.0,526.0
2015-03-17,Perth,Australia,115.8667,-31.9501,[115.3667 -32.4501 116.3667 -31.4501],0.838,0.457,1.319,0.934,0.94,0.378,1.427,0.945,211.0,525.0
2015-03-18,Perth,Australia,115.8667,-31.9501,[115.3667 -32.4501 116.3667 -31.4501],0.872,0.475,1.319,0.954,0.934,0.357,1.4,0.935,222.0,532.0
2015-03-19,Perth,Australia,115.8667,-31.9501,[115.3667 -32.4501 116.3667 -31.4501],0.87,0.475,1.319,0.955,0.945,0.39,1.43,0.943,212.0,532.0
2015-03-20,Perth,Australia,115.8667,-31.9501,[115.3667 -32.4501 116.3667 -31.4501],0.877,0.475,1.319,0.948,0.944,0.415,1.432,0.955,226.0,522.0
2015-03-21,Perth,Australia,115.8667,-31.9501,[115.3667 -32.4501 116.3667 -31.4501],0.908,0.475,1.319,0.952,0.951,0.405,1.42,0.945,234.0,528.0
2015-03-22,Perth,Australia,115.8667,-31.9501,[115.3667 -32.4501 116.3667 -31.4501],0.965,0.475,1.319,0.94,0.948,0.425,1.387,0.941,264.0,514.0
2015-03-23,Perth,Australia,115.8667,-31.9501,[115.3667 -32.4501 116.3667 -31.4501],0.982,0.338,1.389,0.949,0.955,0.404,1.403,0.952,230.0,516.0
2015-03-24,Perth,Australia,115.8667,-31.9501,[115.3667 -32.4501 116.3667 -31.4501],0.853,0.294,1.323,0.866,0.921,0.385,1.388,0.929,232.0,516.0
2015-03-25,Perth,Australia,115.8667,-31.9501,[115.3667 -32.4501 116.3667 -31.4501],0.898,0.273,1.359,0.879,0.887,0.38,1.37,0.919,240.0,529.0
2015-03-26,Perth,Australia,115.8667,-31.9501,[115.3667 -32.4501 116.3667 -31.4501],0.979,0.334,1.389,0.923,0.869,0.387,1.375,0.909,233.0,521.0
2015-03-27,Perth,Australia,115.8667,-31.9501,[115.3667 -32.4501 116.3667 -31.4501],0.979,0.338,1.402,0.936,0.911,0.418,1.341,0.923,257.0,523.0
2015-03-28,Perth,Australia,115.8667,-31.9501,[115.3667 -32.4501 116.3667 -31.4501],0.923,0.334,1.421,0.92,0.874,0.397,1.327,0.903,249.0,532.0
2015-03-29,Perth,Australia,115.8667,-31.9501,[115.3667 -32.4501 116.3667 -31.4501],0.965,0.335,1.421,0.924,0.891,0.409,1.372,0.913,268.0,511.0
2015-03-30,Perth,Australia,115.8667,-31.9501,[115.3667 -32.4501 116.3667 -31.4501],0.965,0.335,1.421,0.924,0.939,0.429,1.394,0.938,268.0,556.0
2015-03-31,Perth,Australia,115.8667,-31.9501,[115.3667 -32.4501 116.3667 -31.4501],0.965,0.335,1.421,0.924,0.913,0.418,1.386,0.932,268.0,542.0
2015-04-01,Perth,Australia,115.8667,-31.9501,[115.3667 -32.4501 116.3667 -31.4501],0.965,0.328,1.418,0.91,0.951,0.462,1.443,0.954,237.0,551.0
2015-04-02,Perth,Australia,115.8667,-31.9501,[115.3667 -32.4501 116.3667 -31.4501],0.979,0.334,1.416,0.913,0.971,0.483,1.472,0.978,204.0,552.0
2015-04-03,Perth,Australia,115.8667,-31.9501,[115.3667 -32.4501 116.3667 -31.4501],0.916,0.308,1.389,0.874,0.969,0.465,1.478,0.973,201.0,561.0
2015-04-04,Perth,Australia,115.8667,-31.9501,[115.3667 -32.4501 116.3667 -31.4501],0.898,0.328,1.389,0.871,0.961,0.463,1.476,0.97,186.0,561.0
2015-04-05,Perth,Australia,115.8667,-31.9501,[115.3667 -32.4501 116.3667 -31.4501],0.879,0.328,1.385,0.861,0.96,0.478,1.495,0.991,197.0,551.0
2015-04-06,Perth,Australia,115.8667,-31.9501,[115.3667 -32.4501 116.3667 -31.4501],0.794,0.26,1.424,0.865,0.978,0.455,1.527,1.017,170.0,558.0
2015-04-07,Perth,Australia,115.8667,-31.9501,[115.3667 -32.4501 116.3667 -31.4501],0.794,0.26,1.424,0.86,1.007,0.458,1.551,1.025,171.0,544.0
2015-04-08,Perth,Australia,115.8667,-31.9501,[115.3667 -32.4501 116.3667 -31.4501],1.138,0.596,1.623,1.059,1.056,0.505,1.6,1.069,135.0,547.0
2015-04-09,Perth,Australia,115.8667,-31.9501,[115.3667 -32.4501 116.3667 -31.4501],0.948,0.579,1.527,0.99,1.081,0.54,1.648,1.086,151.0,548.0
2015-04-10,Perth,Australia,115.8667,-31.9501,[115.3667 -32.4501 116.3667 -31.4501],0.992,0.579,1.637,1.129,1.109,0.588,1.686,1.137,170.0,562.0
2015-04-11,Perth,Australia,115.8667,-31.9501,[115.3667 -32.4501 116.3667 -31.4501],0.992,0.579,1.637,1.14,1.135,0.551,1.747,1.156,158.0,557.0
2015-04-12,Perth,Australia,115.8667,-31.9501,[115.3667 -32.4501 116.3667 -31.4501],1.003,0.589,1.667,1.332,1.153,0.575,1.776,1.208,174.0,561.0
2015-04-13,Perth,Australia,115.8667,-31.9501,[115.3667 -32.4501 116.3667 -31.4501],1.039,0.617,1.931,1.471,1.145,0.57,1.843,1.257,174.0,571.0
2015-04-14,Perth,Australia,115.8667,-31.9501,[115.3667 -32.4501 116.3667 -31.4501],1.175,0.604,1.931,1.432,1.204,0.582,1.914,1.29,193.0,551.0
2015-04-15,Perth,Australia,115.8667,-31.9501,[115.3667 -32.4501 116.3667 -31.4501],1.175,0.604,1.931,1.432,1.198,0.596,1.915,1.303,193.0,562.0
2015-04-16,Perth,Australia,115.8667,-31.9501,[115.3667 -32.4501 116.3667 -31.4501],1.175,0.604,1.931,1.432,1.204,0.608,1.915,1.329,193.0,516.0
2015-04-17,Perth,Australia,115.8667,-31.9501,[115.3667 -32.4501 116.3667 -31.4501],1.175,0.604,1.931,1.432,1.251,0.629,1.961,1.36,193.0,524.0
2015-04-18,Perth,Australia,115.8667,-31.9501,[115.3667 -32.4501 116.3667 -31.4501],1.03,0.603,1.797,1.332,1.177,0.629,1.928,1.335,213.0,522.0
2015-04-19,Perth,Australia,115.8667,-31.9501,[115.3667 -32.4501 116.3667 -31.4501],1.03,0.584,1.779,1.3,1.204,0.623,1.94,1.34,234.0,531.0
2015-04-20,Perth,Australia,115.8667,-31.9501,[115.3667 -32.4501 116.3667 -31.4501],1.03,0.579,1.779,1.284,1.211,0.622,1.936,1.34,238.0,533.0
2015-04-21,Perth,Australia,115.8667,-31.9501,[115.3667 -32.4501 116.3667 -31.4501],1.026,0.579,1.779,1.276,1.188,0.624,1.917,1.32,235.0,522.0
2015-04-22,Perth,Australia,115.8667,-31.9501,[115.3667 -32.4501 116.3667 -31.4501],1.026,0.579,1.779,1.28,1.188,0.639,1.934,1.331,234.0,528.0
2015-04-23,Perth,Australia,115.8667,-31.9501,[115.3667 -32.4501 116.3667 -31.4501],1.026,0.579,1.779,1.28,1.169,0.598,1.872,1.286,234.0,515.0
2015-04-24,Perth,Australia,115.8667,-31.9501,[115.3667 -32.4501 116.3667 -31.4501],1.129,0.594,1.95,1.407,1.172,0.599,1.843,1.294,197.0,519.0
2015-04-25,Perth,Australia,115.8667,-31.9501,[115.3667 -32.4501 116.3667 -31.4501],1.169,0.584,1.888,1.322,1.205,0.591,1.888,1.29,183.0,509.0
2015-04-26,Perth,Australia,115.8667,-31.9501,[115.3667 -32.4501 116.3667 -31.4501],1.141,0.514,1.88,1.246,1.151,0.566,1.907,1.276,202.0,524.0
2015-04-27,Perth,Australia,115.8667,-31.9501,[115.3667 -32.4501 116.3667 -31.4501],1.135,0.511,1.779,1.116,1.145,0.564,1.892,1.252,185.0,513.0
2015-04-28,Perth,Australia,115.8667,-31.9501,[115.3667 -32.4501 116.3667 -31.4501],1.099,0.425,1.755,1.073,1.071,0.513,1.785,1.173,192.0,512.0
2015-04-29,Perth,Australia,115.8667,-31.9501,[115.3667 -32.4501 116.3667 -31.4501],1.138,0.514,1.784,1.149,1.001,0.5,1.674,1.128,193.0,522.0
2015-04-30,Perth,Australia,115.8667,-31.9501,[115.3667 -32.4501 116.3667 -31.4501],1.141,0.514,1.868,1.212,0.998,0.465,1.675,1.121,217.0,507.0
2015-05-01,Perth,Australia,115.8667,-31.9501,[115.3667 -32.4501 116.3667 -31.4501],1.141,0.514,1.868,1.212,1.001,0.48,1.647,1.114,217.0,550.0
2015-05-02,Perth,Australia,115.8667,-31.9501,[115.3667 -32.4501 116.3667 -31.4501],1.263,0.612,1.88,1.281,1.0,0.464,1.638,1.099,247.0,542.0
2015-05-03,Perth,Australia,115.8667,-31.9501,[115.3667 -32.4501 116.3667 -31.4501],1.401,0.69,1.887,1.35,1.004,0.47,1.631,1.098,216.0,552.0
2015-05-04,Perth,Australia,115.8667,-31.9501,[115.3667 -32.4501 116.3667 -31.4501],1.357,0.664,1.88,1.359,1.026,0.474,1.638,1.119,212.0,548.0
2015-05-05,Perth,Australia,115.8667,-31.9501,[115.3667 -32.4501 116.3667 -31.4501],1.387,0.754,1.92,1.511,1.037,0.473,1.641,1.167,217.0,556.0
2015-05-06,Perth,Australia,115.8667,-31.9501,[115.3667 -32.4501 116.3667 -31.4501],1.443,0.768,1.958,1.596,1.035,0.482,1.661,1.185,240.0,557.0
2015-05-07,Perth,Australia,115.8667,-31.9501,[115.3667 -32.4501 116.3667 -31.4501],1.497,0.785,2.111,1.62,1.071,0.503,1.7,1.207,259.0,547.0
2015-05-08,Perth,Australia,115.8667,-31.9501,[115.3667 -32.4501 116.3667 -31.4501],1.497,0.785,2.111,1.62,1.103,0.535,1.747,1.246,259.0,553.0
2015-05-09,Perth,Australia,115.8667,-31.9501,[115.3667 -32.4501 116.3667 -31.4501],1.497,0.785,2.111,1.62,1.092,0.547,1.776,1.256,259.0,538.0
2015-05-10,Perth,Australia,115.8667,-31.9501,[115.3667 -32.4501 116.3667 -31.4501],1.414,0.794,2.078,1.657,1.069,0.536,1.772,1.258,240.0,552.0
2015-05-11,Perth,Australia,115.8667,-31.9501,[115.3667 -32.4501 116.3667 -31.4501],1.437,0.794,2.111,1.7,1.099,0.54,1.791,1.27,213.0,538.0
2015-05-12,Perth,Australia,115.8667,-31.9501,[115.3667 -32.4501 116.3667 -31.4501],1.414,0.794,2.129,1.673,1.056,0.525,1.724,1.232,227.0,556.0
2015-05-13,Perth,Australia,115.8667,-31.9501,[115.3667 -32.4501 116.3667 -31.4501],1.412,0.794,2.154,1.682,1.07,0.507,1.739,1.236,210.0,550.0
2015-05-14,Perth,Australia,115.8667,-31.9501,[115.3667 -32.4501 116.3667 -31.4501],1.392,0.794,2.138,1.652,1.1,0.5,1.749,1.249,202.0,550.0
2015-05-15,Perth,Australia,115.8667,-31.9501,[115.3667 -32.4501 116.3667 -31.4501],1.392,0.794,2.129,1.621,1.122,0.551,1.758,1.262,198.0,556.0
2015-05-16,Perth,Australia,115.8667,-31.9501,[115.3667 -32.4501 116.3667 -31.4501],1.412,0.794,2.292,1.648,1.132,0.556,1.836,1.28,215.0,540.0
2015-05-17,Perth,Australia,115.8667,-31.9501,[115.3667 -32.4501 116.3667 -31.4501],1.381,0.603,2.459,1.681,1.104,0.481,1.831,1.277,185.0,544.0
2015-05-18,Perth,Australia,115.8667,-31.9501,[115.3667 -32.4501 116.3667 -31.4501],1.381,0.603,2.459,1.681,1.106,0.501,1.833,1.278,185.0,496.0
2015-05-19,Perth,Australia,115.8667,-31.9501,[115.3667 -32.4501 116.3667 -31.4501],1.583,0.56,2.81,1.869,1.123,0.473,1.836,1.271,159.0,507.0
2015-05-20,Perth,Australia,115.8667,-31.9501,[115.3667 -32.4501 116.3667 -31.4501],1.118,0.408,2.129,1.426,1.001,0.4,1.734,1.17,157.0,505.0
2015-05-21,Perth,Australia,115.8667,-31.9501,[115.3667 -32.4501 116.3667 -31.4501],1.067,0.408,2.101,1.278,0.948,0.372,1.675,1.107,162.0,515.0
2015-05-22,Perth,Australia,115.8667,-31.9501,[115.3667 -32.4501 116.3667 -31.4501],1.014,0.408,2.005,1.236,0.903,0.334,1.612,1.067,165.0,518.0
2015-05-23,Perth,Australia,115.8667,-31.9501,[115.3667 -32.4501 116.3667 -31.4501],1.067,0.408,2.101,1.297,0.904,0.307,1.618,1.059,185.0,507.0
2015-05-24,Perth,Australia,115.8667,-31.9501,[115.3667 -32.4501 116.3667 -31.4501],1.122,0.408,2.101,1.335,0.9,0.276,1.617,1.056,197.0,513.0
2015-05-25,Perth,Australia,115.8667,-31.9501,[115.3667 -32.4501 116.3667 -31.4501],1.0,0.367,2.077,1.244,0.92,0.301,1.683,1.045,207.0,498.0
2015-05-26,Perth,Australia,115.8667,-31.9501,[115.3667 -32.4501 116.3667 -31.4501],1.014,0.408,2.101,1.271,0.897,0.327,1.651,1.034,200.0,515.0
2015-05-27,Perth,Australia,115.8667,-31.9501,[115.3667 -32.4501 116.3667 -31.4501],0.993,0.299,2.101,1.24,0.904,0.275,1.679,1.042,184.0,505.0
2015-05-28,Perth,Australia,115.8667,-31.9501,[115.3667 -32.4501 116.3667 -31.4501],0.97,0.291,2.005,1.203,0.929,0.281,1.718,1.054,207.0,522.0
2015-05-29,Perth,Australia,115.8667,-31.9501,[115.3667 -32.4501 116.3667 -31.4501],0.964,0.245,1.997,1.178,0.953,0.293,1.722,1.047,206.0,515.0
2015-05-30,Perth,Australia,115.8667,-31.9501,[115.3667 -32.4501 116.3667 -31.4501],0.97,0.374,1.997,1.184,0.915,0.302,1.748,1.03,203.0,515.0
2015-05-31,Perth,Australia,115.8667,-31.9501,[115.3667 -32.4501 116.3667 -31.4501],0.979,0.408,1.989,1.162,0.915,0.31,1.713,1.011,198.0,522.0
2015-06-01,Perth,Australia,115.8667,-31.9501,[115.3667 -32.4501 116.3667 -31.4501],0.993,0.408,2.005,1.238,0.893,0.334,1.66,1.0,212.0,507.0
2015-06-02,Perth,Australia,115.8667,-31.9501,[115.3667 -32.4501 116.3667 -31.4501],0.993,0.408,2.005,1.238,0.904,0.33,1.667,1.01,212.0,550.0
2015-06-03,Perth,Australia,115.8667,-31.9501,[115.3667 -32.4501 116.3667 -31.4501],1.042,0.408,1.971,1.215,0.915,0.339,1.685,1.025,243.0,540.0
2015-06-04,Perth,Australia,115.8667,-31.9501,[115.3667 -32.4501 116.3667 -31.4501],1.256,0.431,2.043,1.311,0.998,0.343,1.719,1.055,217.0,550.0
2015-06-05,Perth,Australia,115.8667,-31.9501,[115.3667 -32.4501 116.3667 -31.4501],1.325,0.484,1.959,1.3,1.089,0.395,1.798,1.126,220.0,547.0
2015-06-06,Perth,Australia,115.8667,-31.9501,[115.3667 -32.4501 116.3667 -31.4501],1.275,0.455,1.85,1.266,1.106,0.386,1.799,1.139,207.0,555.0
2015-06-07,Perth,Australia,115.8667,-31.9501,[115.3667 -32.4501 116.3667 -31.4501],1.256,0.431,1.85,1.215,1.106,0.395,1.807,1.157,204.0,557.0
2015-06-08,Perth,Australia,115.8667,-31.9501,[115.3667 -32.4501 116.3667 -31.4501],1.256,0.431,1.882,1.167,1.112,0.428,1.822,1.166,214.0,548.0
2015-06-09,Perth,Australia,115.8667,-31.9501,[115.3667 -32.4501 116.3667 -31.4501],1.27,0.455,1.907,1.229,1.052,0.384,1.736,1.157,205.0,555.0
2015-06-10,Perth,Australia,115.8667,-31.9501,[115.3667 -32.4501 116.3667 -31.4501],1.268,0.455,1.907,1.224,1.06,0.364,1.755,1.143,207.0,540.0
2015-06-11,Perth,Australia,115.8667,-31.9501,[115.3667 -32.4501 116.3667 -31.4501],1.325,0.536,1.907,1.274,1.106,0.395,1.744,1.206,199.0,554.0
2015-06-12,Perth,Australia,115.8667,-31.9501,[115.3667 -32.4501 116.3667 -31.4501],1.325,0.484,1.85,1.257,1.139,0.412,1.739,1.213,184.0,549.0
2015-06-13,Perth,Australia,115.8667,-31.9501,[115.3667 -32.4501 116.3667 -31.4501],1.321,0.484,1.833,1.234,1.13,0.387,1.75,1.19,188.0,563.0
2015-06-14,Perth,Australia,115.8667,-31.9501,[115.3667 -32.4501 116.3667 -31.4501],1.325,0.455,1.833,1.222,1.116,0.406,1.762,1.173,171.0,557.0